This is the latest recevied weather packets stored in our database for station/object DM2KB-13. If no packets are shown the sender has not sent any weather packets the latest 10 day(s).
| Time | Temp. | Humidity | Pressure | Rain* | Wind** | Luminosity | Snow |
|---|---|---|---|---|---|---|---|
| 1777379134 | 19.44° C | 44% | 1021.1 hPa | 0 mm | - | 754 W/m² | - |
| 1777378834 | 19.44° C | 44% | 1021.2 hPa | 0 mm | - | 758 W/m² | - |
| 1777378534 | 19.44° C | 45% | 1021.1 hPa | 0 mm | - | 770 W/m² | - |
| 1777378233 | 19.44° C | 45% | 1021.2 hPa | 0 mm | - | 772 W/m² | - |
| 1777377933 | 19.44° C | 43% | 1021.2 hPa | 0 mm | - | 766 W/m² | - |
| 1777377633 | 19.44° C | 45% | 1021.3 hPa | 0 mm | - | 770 W/m² | - |
| 1777377332 | 19.44° C | 45% | 1021.3 hPa | 0 mm | - | 773 W/m² | - |
| 1777377032 | 19.44° C | 46% | 1021.3 hPa | 0 mm | - | 772 W/m² | - |
| 1777376732 | 19.44° C | 45% | 1021.3 hPa | 0 mm | - | 772 W/m² | - |
| 1777376432 | 19.44° C | 46% | 1021.2 hPa | 0 mm | - | 775 W/m² | - |
| 1777376132 | 18.89° C | 48% | 1021.3 hPa | 0 mm | - | 772 W/m² | - |
| 1777375831 | 18.89° C | 47% | 1021.2 hPa | 0 mm | - | 773 W/m² | - |
| 1777375531 | 18.89° C | 49% | 1021.3 hPa | 0 mm | - | 772 W/m² | - |
| 1777375231 | 18.89° C | 49% | 1021.2 hPa | 0 mm | - | 773 W/m² | - |
| 1777374930 | 18.89° C | 47% | 1021.2 hPa | 0 mm | - | 766 W/m² | - |
| 1777374630 | 18.89° C | 48% | 1021.2 hPa | 0 mm | - | 772 W/m² | - |
| 1777374330 | 18.89° C | 46% | 1021.2 hPa | 0 mm | - | 765 W/m² | - |
| 1777374029 | 18.89° C | 50% | 1021.2 hPa | 0 mm | - | 765 W/m² | - |
| 1777373729 | 18.33° C | 49% | 1021.2 hPa | 0 mm | - | 763 W/m² | - |
| 1777373429 | 18.33° C | 49% | 1021.2 hPa | 0 mm | - | 759 W/m² | - |
| 1777373129 | 18.33° C | 49% | 1021.3 hPa | 0 mm | - | 759 W/m² | - |
| 1777372828 | 18.33° C | 49% | 1021.2 hPa | 0 mm | - | 759 W/m² | - |
| 1777372528 | 18.33° C | 49% | 1021.3 hPa | 0 mm | - | 759 W/m² | - |
| 1777372228 | 18.33° C | 50% | 1021.4 hPa | 0 mm | - | 751 W/m² | - |
| 1777371927 | 18.33° C | 48% | 1021.4 hPa | 0 mm | - | 745 W/m² | - |
* Rain latest hour (hover to see other rain measurements)
** Current wind speed in m/s (hover to see current wind gust speed)